www.pogodaiklimat.ru
ПОГОДА в Одихеме
Время
(UTC), дата
16 7.11
17 7.11
18 7.11
19 7.11
20 7.11
21 7.11
22 7.11
23 7.11
00 8.11
01 8.11
02 8.11
03 8.11
04 8.11
05 8.11
06 8.11
07 8.11
08 8.11
09 8.11
10 8.11
11 8.11
12 8.11
13 8.11
14 8.11
15 8.11
16 8.11
17 8.11
18 8.11
19 8.11
20 8.11
21 8.11
22 8.11
23 8.11
00 9.11
01 9.11
02 9.11
03 9.11
04 9.11
05 9.11
06 9.11
07 9.11
08 9.11
09 9.11
10 9.11
11 9.11
12 9.11
13 9.11
14 9.11
15 9.11
16 9.11
17 9.11
18 9.11
19 9.11
20 9.11
21 9.11
22 9.11
23 9.11
00 10.11
01 10.11
02 10.11
03 10.11
04 10.11
05 10.11
06 10.11
07 10.11
08 10.11
09 10.11
10 10.11
11 10.11
12 10.11
13 10.11
14 10.11
15 10.11
16 10.11
17 10.11
18 10.11
20 10.11
21 10.11
22 10.11
23 10.11
00 11.11
01 11.11
02 11.11
03 11.11
04 11.11
05 11.11
06 11.11
07 11.11
08 11.11
09 11.11
10 11.11
11 11.11
12 11.11
13 11.11
14 11.11
15 11.11
16 11.11
17 11.11
18 11.11
19 11.11
20 11.11
21 11.11
22 11.11
23 11.11
00 12.11
01 12.11
02 12.11
03 12.11
04 12.11
05 12.11
06 12.11
07 12.11
08 12.11
09 12.11
10 12.11
11 12.11
12 12.11
13 12.11
14 12.11
15 12.11
16 12.11
17 12.11
18 12.11
19 12.11
20 12.11
21 12.11
22 12.11
23 12.11
00 13.11
01 13.11
02 13.11
03 13.11
04 13.11
05 13.11
06 13.11
07 13.11
08 13.11
09 13.11
10 13.11
11 13.11
12 13.11
13 13.11
14 13.11
15 13.11
16 13.11
17 13.11
18 13.11
19 13.11
21 13.11
00 14.11
01 14.11
02 14.11
03 14.11
04 14.11
05 14.11
06 14.11
09 14.11
10 14.11
11 14.11
12 14.11
13 14.11
14 14.11
15 14.11
Ветер
(напр.,м/с)
Видим. Явления Облачность Т
(С)
Тd
(С)
f
(%)
Тe
(С)
Тes
(С)
Комфортность P
(гПа)
Po
(гПа)
Тmin
(С)
Tmax
(С)
R
(мм)
R24
(мм)
S
(см)
ЮЗ 3 30 км осадки на расстоянии 4/4 840 м
[Cu med, cong Ci sp]
+7.7 +3.8 76 +5 +5 тепло 994.1 979.9
Ю 2 30 км 4/4 960 м
[Cu Sc Ci sp]
+6.1 +3.4 83 +4 +4 по сезону 994.9 980.7
Ю 4 30 км {ливн. осадки} 1/1 960 м
[Cu Sc Ci sp]
+4.2 +2.8 91 0 0 по сезону 995.6 981.3 +9.5 0.0
Ю 3 30 км 1/1 1050 м
[Sc Ci sp]
+3.3 +2.0 91 -0 -0 по сезону 996.2 981.8
ЮЗ 1 30 км 1/1 750 м
[Sc]
+3.8 +2.9 94 +2 +2 по сезону 996.6 982.2
Ю 2 30 км 1/1 750 м
[Sc]
+2.1 +1.3 94 -1 -1 по сезону 997.1 982.6
Ю 3 30 км 1/1 750 м
[Sc]
+2.8 +2.2 96 -1 -1 по сезону 997.7 983.2
ЮВ 1 20 км 1/1 900 м
[Sc]
+1.9 +1.3 96 -0 -0 по сезону 998.1 983.6
СЗ 1 12 км местами туман поземный 1/1 750 м
[Sc]
+0.6 -0.1 95 -2 -2 по сезону 998.9 984.3
В 1 800 м туман н/о -0.4 -0.6 99 -3 -3 прохладно 999.6 984.9
З 1 10 км в посл. час туман н/о +0.5 +0.5 100 -0 -0 по сезону 999.9 985.3
З 2 8000 м дымка н/о +0.2 +0.1 99 -3 -3 прохладно 1000.5 985.8
ЮЗ 1 6000 м дымка ясно -0.6 -0.8 99 -3 -3 прохладно 1001.3 986.6
З 2 7000 м дымка ясно +0.4 +0.3 99 -3 -3 прохладно 1002.2 987.5
ЮЗ 2 800 м туман местами 1/1 30 м
[St]
+0.4 +0.4 100 -3 -3 прохладно 1003.0 988.3 -2.2
ЮЗ 2 600 м туман местами 4/1 30 м
[St Ci ing]
+0.5 +0.5 100 -3 -3 прохладно 1003.8 989.2
З 2 3000 м в посл. час туман 5/5 30 м
[St]
+1.0 +1.0 100 -2 -2 по сезону 1004.9 990.2
Ю 1 200 м туман ?/? +2.0 +2.0 100 -0 -0 по сезону 1005.5 990.9
С 1 600 м туман 10/10 60 м
[St]
+3.2 +3.2 100 +1 +1 по сезону 1006.8 992.2
СЗ 3 500 м туман ?/? +4.0 +4.0 100 -0 -0 по сезону 1007.4 992.9
СЗ 4 4000 м в посл. час туман 9/9 120 м
[Sc]
+5.5 +5.5 100 +1 +1 по сезону 1007.5 993.0 0.2
СЗ 3 5000 м слаб. морось 10/10 150 м
[Sc]
+5.9 +5.7 99 +2 +2 по сезону 1008.1 993.7
СЗ 4 12 км в посл. час дождь 9/9 240 м
[Sc]
+6.8 +5.7 93 +3 +3 по сезону 1008.4 994.0
СЗ 5 20 км {дождь, морось} 9/9 540 м
[Sc]
+7.0 +4.4 84 +3 +3 по сезону 1009.0 994.6
СЗ 4 28 км 9/9 800 м
[Sc]
+6.9 +3.9 81 +4 +4 по сезону 1009.7 995.3
СЗ 3 30 км 9/9 1020 м
[Sc]
+6.5 +3.4 81 +3 +3 по сезону 1010.4 995.9
СЗ 4 16 км {дождь, морось} 9/9 750 м
[Sc]
+6.1 +3.5 83 +3 +3 по сезону 1011.0 996.6 +7.1 0.2
СЗ 5 23 км 9/9 800 м
[Sc]
+5.9 +3.4 84 +2 +2 по сезону 1011.4 996.9
СЗ 5 20 км в посл. час дождь н/о +5.4 +3.0 85 +1 +1 по сезону 1011.8 997.3
СЗ 3 18 км н/о +5.4 +3.4 87 +2 +2 по сезону 1012.1 997.6
СЗ 3 20 км н/о +5.4 +3.6 88 +2 +2 по сезону 1012.2 997.7
З 3 21 км в посл. час дождь н/о +4.8 +3.6 92 +1 +1 по сезону 1012.4 997.9
СЗ 1 18 км н/о +3.7 +2.9 95 +2 +2 по сезону 1012.0 997.4 0.0
З 3 13 км н/о +3.2 +2.6 96 -1 -1 по сезону 1012.6 997.9
З 3 11 км н/о +2.6 +2.1 97 -2 -2 по сезону 1012.6 997.9
ЮЗ 2 9000 м н/о +1.6 +0.9 95 -2 -2 по сезону 1012.3 997.6
ЮЗ 3 7000 м дымка н/о +1.1 +0.9 99 -3 -3 прохладно 1011.5 996.7
ЮЗ 3 7000 м дымка н/о +0.5 +0.3 99 -4 -4 прохладно 1010.9 996.1
Ю 1 700 м туман н/о -1.2 -1.5 98 -4 -4 прохладно 1010.5 995.6 -1.6 0.0
ЮЗ 2 5000 м в посл. час туман н/о -0.2 -0.3 99 -3 -3 прохладно 1010.0 995.2
Ю 2 20 км 6/0
[Ac trans Ci fib]
-0.1 -0.2 99 -4 -4 прохладно 1009.3 994.6
ЮВ 4 17 км 8/1 30 м
[St Ac trans Ci fib]
+2.9 +2.3 96 -2 -2 по сезону 1008.2 993.6
ЮВ 4 18 км 9/1 30 м
[St Ac As Ci fib]
+3.3 +2.2 92 -2 -1 по сезону 1007.3 992.7
ЮВ 5 18 км 9/5 2000 м
[Sc As op]
+4.9 +3.5 91 0 0 по сезону 1005.6 991.1
В 5 16 км слаб. дождь 10/8 900 м
[Sc As op]
+5.4 +3.9 90 +1 +1 по сезону 1004.1 989.7 0.0
В 4 7000 м слаб. дождь 10/10 360 м
[Sc]
+5.1 +4.5 96 +1 +1 по сезону 1003.5 989.1
В 5 4000 м дождь 10/10 300 м
[Sc]
+5.5 +5.3 99 +1 +1 по сезону 1002.4 988.0
В 3 6000 м дождь н/о +6.2 +6.0 99 +3 +3 по сезону 1001.4 987.1
ЮВ 6 20 км слаб. дождь 10/10 360 м
[Sc]
+6.5 +5.8 95 +2 +2 по сезону 1000.3 986.0
В 5 18 км слаб. дождь 10/10 420 м
[Sc]
+6.4 +5.5 94 +2 +2 по сезону 1000.1 985.8
ЮВ 4 3000 м дождь 10/10 150 м
[Sc]
+6.4 +6.0 97 +3 +3 по сезону 1000.1 985.8 +6.6 10
Ю 2 26 км в посл. час дождь н/о +6.6 +5.9 95 +5 +5 тепло 1000.1 985.8
ЮЗ 3 3300 м дымка н/о +5.8 +5.4 97 +2 +2 по сезону 1000.0 985.7
ЮЗ 4 2300 м в посл. час морось н/о +5.9 +5.8 99 +2 +2 по сезону 1000.0 985.7
З 5 4400 м дымка н/о +5.7 +5.5 99 +1 +1 по сезону 1000.4 986.0
ЮЗ 3 2100 м дымка н/о +5.6 +5.5 99 +2 +2 по сезону 1000.9 986.6
ЮЗ 2 2500 м дымка н/о +5.5 +5.4 99 +3 +3 по сезону 1001.5 987.1 0.6
ЮВ 2 1600 м дымка н/о +5.5 +5.5 100 +3 +3 по сезону 1002.4 988.0
В 4 400 м туман н/о +5.5 +5.5 100 +1 +1 по сезону 1003.1 988.7
СВ 3 7000 м в посл. час туман н/о +5.4 +5.2 99 +2 +2 по сезону 1004.1 989.7
СВ 4 3300 м дымка н/о +5.8 +5.7 99 +2 +2 по сезону 1005.2 990.8
СВ 6 15 км слаб. морось н/о +6.6 +6.3 98 +2 +2 по сезону 1006.6 992.2
СВ 5 10 км слаб. морось н/о +6.5 +6.0 97 +2 +2 по сезону 1008.0 993.5 +5.3 1
СВ 5 8000 м морось с дождем н/о +6.1 +5.7 97 +1 +1 по сезону 1009.4 995.0
СВ 4 13 км в посл. час дождь н/о +5.8 +5.1 95 +2 +2 по сезону 1010.8 996.4
СВ 4 22 км 9/9 240 м
[Sc]
+5.5 +4.2 91 +2 +2 по сезону 1012.1 997.6
С 3 28 км 5/5 270 м
[Cu Sc]
+6.5 +4.8 89 +3 +4 по сезону 1013.1 998.6
С 5 28 км 1/1 450 м
[Cu Sc]
+7.3 +4.7 84 +4 +5 по сезону 1013.6 999.1
С 4 28 км 3/3 500 м
[Cu hum]
+8.8 +5.5 80 +6 +7 тепло 1013.7 999.4 0.2
СВ 3 28 км 4/4 570 м
[Cu Sc Ci fib]
+9.0 +4.8 75 +7 +8 тепло 1013.6 999.3
СВ 4 30 км 3/3 660 м
[Sc diur, vesp]
+8.3 +3.9 74 +5 +6 тепло 1014.0 999.6
СВ 3 27 км н/о +7.8 +3.7 75 +5 +5 тепло 1014.3 999.9
штиль 0 30 км 3/1 1140 м
[Sc diur, vesp Ci fib]
+7.1 +3.9 80 +6 +6 тепло 1014.7 1000.2
С 1 20 км 4/3 1200 м
[Sc Cs]
+3.5 +1.0 84 +3 +3 по сезону 1014.5 999.8
ЮВ 1 22 км 6/1 1200 м
[Sc Cs]
+2.5 +1.3 92 +2 +2 по сезону 1014.0 999.3 +9.5 0.2
Ю 2 25 км 6/0
[Ci fib]
+3.8 +2.1 89 +1 +1 по сезону 1012.7 998.1
ЮВ 2 20 км 8/0
[Ci sp]
+3.0 +2.4 96 -0 -0 по сезону 1012.3 997.6
ЮВ 4 20 км 10/0
[As op]
+5.0 +4.5 97 +1 +1 по сезону 1011.5 997.0
ЮВ 5 18 км 10/0
[As op]
+6.2 +4.1 86 +2 +2 по сезону 1009.9 995.5
Ю 3 18 км 10/10 1200 м
[Sc]
+5.6 +4.1 90 +3 +3 по сезону 1009.5 995.0
ЮВ 5 16 км слаб. ливневой дождь н/о +6.1 +4.1 87 +2 +2 по сезону 1007.5 993.1
Ю 6 13 км слаб. дождь н/о +5.9 +4.9 93 +1 +1 по сезону 1005.6 991.2
Ю 5 12 км слаб. дождь 10/10 960 м
[Sc]
+6.7 +6.0 95 +2 +2 по сезону 1003.9 989.5
ЮЗ 6 4700 м дождь 10/10 210 м
[Sc]
+7.6 +7.0 96 +3 +3 по сезону 1002.6 988.3
ЮЗ 7 23 км в посл. час дождь 9/9 420 м
[Sc Ac trans]
+8.3 +7.4 94 +4 +4 по сезону 1000.9 986.7
З 8
{14}
22 км в посл. час дождь н/о +7.2 +5.0 86 +2 +2 по сезону 1000.6 986.3 +2.1 4
З 6 35 км 5/4 360 м
[Sc Ac trans]
+6.3 +3.6 83 +2 +2 по сезону 1001.3 987.0
З 5 20 км 1/1 600 м
[Sc]
+5.4 +3.2 86 +1 +1 по сезону 1002.1 987.7
З 6 25 км 1/1 600 м
[Sc Ac trans]
+6.4 +3.7 83 +2 +2 по сезону 1002.2 987.9
З 9 30 км 3/1 660 м
[Cu hum Ac As Ci fib]
+7.1 +3.4 77 +2 +2 по сезону 1002.4 988.1
З 8
{13}
30 км 6/1 700 м
[Cu hum Ac trans Ci fib]
+7.6 +3.7 76 +3 +3 по сезону 1002.8 988.5
З 9
{15}
30 км 3/1 840 м
[Cu hum Ci fib]
+8.3 +2.9 69 +4 +4 по сезону 1002.4 988.2
З 7
{14}
30 км 1/1 870 м
[Cu hum Ac trans Ci fib]
+8.9 +2.9 66 +5 +5 тепло 1002.4 988.2
З 7 25 км 4/4 900 м
[Cu hum]
+8.8 +2.7 66 +5 +5 тепло 1002.3 988.1
З 8 25 км в посл. час снег 3/3 960 м
[Cu hum Ci fib]
+8.3 +2.5 67 +4 +4 по сезону 1002.0 987.8
З 7 30 км 3/3 1050 м
[Sc diur, vesp]
+7.8 +2.6 70 +4 +4 по сезону 1002.3 988.0
З 7 30 км 1/1 1050 м
[Sc diur, vesp]
+7.1 +2.5 73 +2 +2 по сезону 1002.5 988.2
ЮЗ 6 25 км 1/1 1050 м
[Sc]
+6.2 +2.3 76 +2 +2 по сезону 1002.7 988.3 +9.0 0.0
ЮЗ 6 20 км 1/1 1050 м
[Sc]
+5.5 +2.2 79 +1 +1 по сезону 1002.8 988.4
ЮЗ 5 25 км ясно +4.7 +2.4 85 0 0 по сезону 1002.8 988.4
ЮЗ 5 22 км ясно +4.3 +2.6 89 -1 -1 по сезону 1002.8 988.4
ЮЗ 6 24 км 1/0
[Ci fib]
+4.5 +2.6 87 -1 -1 по сезону 1002.5 988.0
ЮЗ 7 30 км 5/0
[Ac trans Ci fib]
+4.5 +2.4 86 -1 -1 по сезону 1002.3 987.9
ЮЗ 6 30 км 4/0
[Ac trans Ci fib]
+4.3 +2.0 85 -1 -1 по сезону 1002.1 987.7
ЮЗ 6 35 км 6/0
[Ac trans]
+3.6 +1.9 89 -2 -2 по сезону 1001.9 987.4
ЮЗ 7 40 км н/о +3.6 +2.0 89 -2 -2 по сезону 1001.7 987.2
ЮЗ 5 35 км 4/0
[Ac trans Ci fib]
+3.4 +1.7 89 -2 -2 по сезону 1001.1 986.6
ЮЗ 6 30 км 5/0
[Ac trans Ci fib]
+2.9 +1.4 90 -3 -3 прохладно 1000.9 986.4
ЮЗ 7 30 км 6/0
[Ac trans]
+3.0 +1.5 90 -3 -3 прохладно 1000.7 986.2
ЮЗ 6 30 км 4/0
[Ac trans]
+3.0 +1.0 87 -3 -3 прохладно 1000.5 986.0 +2.6
ЮЗ 5 30 км 1/1 1500 м
[Sc Ac trans]
+2.4 +0.7 89 -3 -3 прохладно 1000.4 985.9
ЮЗ 4 30 км 1/1 1200 м
[Sc Ac trans]
+2.6 +0.6 87 -2 -2 по сезону 1000.4 985.9
ЮЗ 6 30 км 1/1 1200 м
[Sc]
+4.1 +1.2 81 -1 -1 по сезону 1000.0 985.6
ЮЗ 8 30 км 1/1 360 м
[St]
+5.4 +1.6 76 -0 0 по сезону 999.7 985.3
ЮЗ 9 30 км 1/1 660 м
[Cu Sc Ci fib]
+7.2 +1.6 68 +2 +2 по сезону 999.0 984.7
З 10-15
{16}
25 км 9/3 1020 м
[Sc Cs]
+8.0 +1.4 63 +3 +3 по сезону 998.5 984.3
З 9-15
{15}
7000 м слаб. дождь 10/10 750 м
[Sc]
+6.1 +2.7 79 0 0 по сезону 998.5 984.2
ЮЗ 9
{15}
18 км слаб. дождь 10/10 420 м
[Sc]
+6.3 +3.7 83 +1 +1 по сезону 997.5 983.3
З 9
{13}
30 км в посл. час ливневой дождь 9/9 660 м
[Sc]
+6.6 +4.0 83 +1 +1 по сезону 997.6 983.4
З 8 20 км 9/9 660 м
[Sc]
+6.9 +4.3 83 +2 +2 по сезону 997.8 983.6
З 8
{13}
30 км в посл. час снег {дождь} 8/8 900 м
[Sc]
+7.1 +4.4 83 +2 +2 по сезону 998.2 983.9
З 7 30 км {дождь, морось} 9/9 900 м
[Sc]
+6.8 +4.7 86 +2 +2 по сезону 998.7 984.5 +8.6 1
З 6 30 км в посл. час дождь 9/9 1200 м
[Sc]
+7.1 +4.9 86 +3 +3 по сезону 999.4 985.2
З 7 30 км 8/8 1200 м
[Sc]
+7.5 +4.8 83 +3 +3 по сезону 999.8 985.5
З 6 30 км {дождь} 9/9 480 м
[Sc]
+6.9 +4.7 86 +3 +3 по сезону 1000.5 986.2
З 5 30 км 9/9 800 м
[Sc]
+6.6 +4.8 88 +2 +2 по сезону 1001.1 986.8
З 5 25 км 9/9 800 м
[Sc]
+6.8 +4.7 86 +3 +3 по сезону 1001.5 987.2
З 5 25 км 9/9 900 м
[Sc]
+6.3 +4.4 88 +2 +2 по сезону 1001.8 987.5 0.0
З 5 30 км 9/9 900 м
[Sc]
+6.5 +3.8 83 +2 +2 по сезону 1001.9 987.6
З 4 29 км н/о +5.3 +3.4 88 +1 +1 по сезону 1002.1 987.7
З 4 29 км н/о +4.2 +3.1 93 -0 -0 по сезону 1001.9 987.4
ЮЗ 3 30 км 5/0
[Ci fib]
+3.8 +2.7 93 0 0 по сезону 1002.2 987.7
ЮЗ 3 30 км 6/0
[Ac trans Ci fib]
+4.0 +2.8 92 +1 +1 по сезону 1002.4 988.0
ЮЗ 4 20 км 6/0
[Ac trans Ci fib]
+3.4 +2.7 95 -1 -1 по сезону 1002.7 988.2 +2.8 0.0
ЮЗ 4 20 км 3/0
[Ac trans Ci fib]
+3.3 +2.5 94 -1 -1 по сезону 1002.6 988.1
ЮЗ 3 25 км 4/3 1470 м
[Sc Ac trans Ci fib]
+3.5 +2.7 94 -1 -1 по сезону 1002.5 988.0
ЮЗ 4 30 км 6/6 1350 м
[Sc]
+4.7 +3.1 89 0 0 по сезону 1002.7 988.3
ЮЗ 5 30 км 4/4 1350 м
[Sc Ac lent Ci fib]
+6.1 +3.9 86 +2 +2 по сезону 1002.1 987.7
ЮЗ 5 30 км 3/3 400 м
[Cu Sc Ac trans Ci fib]
+7.1 +3.7 79 +3 +4 по сезону 1001.3 987.0
ЮЗ 4 30 км 5/1 450 м
[Cu hum Ac trans Ci fib]
+7.3 +3.5 77 +4 +5 по сезону 1000.2 985.9
ЮЗ 5 30 км 6/1 540 м
[Cu hum As trans Ci fib]
+7.4 +2.7 72 +4 +4 по сезону 999.4 985.2
Ю 5 30 км 6/1 600 м
[Cu hum As trans Ci fib]
+8.5 +3.8 72 +5 +6 тепло 998.5 984.3
Ю 4 30 км 8/1 600 м
[Cu Sc As trans Ci fib]
+7.2 +3.7 78 +4 +4 по сезону 997.5 983.3
ЮВ 3 25 км 4/0
[Ac As Ci fib]
+6.2 +2.9 79 +3 +3 по сезону 996.1 981.9
В 4 20 км 4/0
[Ac trans Ci fib]
+4.9 +2.6 85 +1 +1 по сезону 994.9 980.6
ЮВ 5 10 км дождь 8/3 750 м
[Sc Ac trans]
+5.3 +3.4 88 +1 +1 по сезону 993.8 979.5 +8.5 0.0
В 5 15 км в посл. час дождь 10/5 750 м
[Sc Ac trans]
+5.3 +4.4 94 +1 +1 по сезону 992.4 978.1
В 6 5000 м дождь 10/10 480 м
[Sc]
+5.8 +5.2 96 +1 +1 по сезону 989.9 975.7
В 2 10 км слаб. дождь 10/10 750 м
[Sc]
+4.3 +3.7 96 +1 +1 по сезону 989.1 974.8 12
В 4 15 км слаб. дождь 10/10 900 м
[Sc]
+3.9 +3.3 96 -1 -1 по сезону 988.7 974.4
СВ 2 40 км в посл. час дождь н/о +3.7 +3.0 95 +1 +1 по сезону 988.5 974.2
ЮЗ 1 18 км слаб. ливневой дождь н/о +3.4 +3.0 97 +2 +2 по сезону 988.9 974.6
З 2 30 км в посл. час дождь 10/10 660 м
[Sc]
+3.5 +3.2 98 0 0 по сезону 988.9 974.7
ЮЗ 2 30 км 9/9 600 м
[Sc]
+3.5 +3.0 97 +1 +1 по сезону 989.7 975.4
З 2 30 км {дождь} н/о +3.6 +3.2 97 0 0 по сезону 990.2 975.9 +3.4 13 13.2
Ю 1 30 км 9/9 180 м
[Sc]
+4.0 +3.1 94 +2 +2 по сезону 992.8 978.5
Ю 3 25 км 9/9 240 м
[Sc]
+4.6 +3.2 91 +1 +1 по сезону 993.5 979.2
ЮВ 3 25 км 8/6 360 м
[Sc Ci fib]
+5.9 +3.6 85 +3 +4 по сезону 994.2 980.0
В 3 30 км 6/5 300 м
[Cu Sc Ci fib]
+6.3 +3.9 85 +3 +4 по сезону 994.7 980.5
ЮВ 3 30 км 5/3 450 м
[Cu hum Ci fib]
+7.0 +3.0 76 +4 +5 по сезону 995.2 981.0
В 2 30 км 4/1 600 м
[Cu hum Ac trans Ci ing]
+7.1 +2.3 71 +5 +6 тепло 995.7 981.5
В 3 35 км 4/1 600 м
[Cu hum Ci sp]
+7.0 +2.9 75 +4 +5 по сезону 996.7 982.5
Местоположение метеостанции Одихем (Великобритания): широта 51.23 долгота -0.95 высота над уровнем моря 118 м.
В архиве по умолчанию представлена погода в Одихеме за последнюю неделю. Архивные данные за месяц целиком и за предыдущие месяцы, начиная с января 2011 года, Вы можете получить, выбрав интересующий диапазон дат из раскрывающегося списка и нажав кнопку "Найти!".
*Определитесь, кто Вы:
Внимание! Время в таблицах - всемирное. Для получения местного времени необходимо прибавить поправку, которая равна 0 ч.
Смотрите также архив погоды в соседних городах и на ближайших метеорологических станциях:
Партнеры нашего сайта:      
Пояснения к столбцам:
  • Ветер - указаны скорость ветра в м/с - средняя за 10 мин, порывы в срок и между сроками (в фигурных скобках) и направление, откуда дует ветер: С - северный,
  • СВ - северо-восточный, В - восточный, ЮВ - юго-восточный, Ю - южный, ЮЗ - юго-западный, З - западный, СЗ - северо-западный.
  • Видимость - горизонтальная дальность видимости в метрах или километрах. При видимости от 1 до 10 км при отсутствии осадков обычно наблюдается дымка, при ухудшении видимости до 1 км и менее - туман. В сухую погоду видимость может ухудшаться дымом, пылью или мглою.
  • Явления - указаны атмосферные явления, наблюдавшиеся в срок или в последний час перед сроком; фигурными скобками обозначены явления, наблюдавшиеся между сроками (за 1-3 часа до срока); квадратными скобками обозначены град или гололедные отложения с указанием их диаметра в мм.
  • Облачность - указаны через наклонную черту общая и нижняя облачность в баллах и высота нижней границы облаков в метрах; квадратными скобками обозначены формы облаков: Ci - перистые, Cs - перисто-слоистые, Cc - перисто-кучевые, Ac - высококучевые, As - высокослоистые, Sc - слоисто-кучевые, Ns - слоисто-дождевые, Cu - кучевые, Cb - кучево-дождевые. Подробнее классификацию облаков см. в Атласе облаков (PDF).
  • T - Температура воздуха - температура, измеренная на высоте 2 м над землей.
  • Td - Температура точки росы - температура, при понижении до которой содержащийся в воздухе водяной пар достигнет насыщения.
  • f - Относительная влажность воздуха - влажноcть воздуха, измеренная на высоте 2 м над землей.
  • Te - Эффективная температура - температура, которую ощущает одетый по сезону человек в тени. Характеристика душности погоды. При расчете учитывается влияние влажности воздуха и скорости ветра на теплоощущения человека.
  • Tes - Эффективная температура на солнце - температура, которую ощущает человек, с поправкой на солнечный нагрев. Характеристика знойности погоды. Зависит от высоты солнца над горизонтом, облачности и скорости ветра. Ночью, в пасмурную погоду, а также при ветре 12 м/с и более поправка равна нулю.
  • P - Атмосферное давление - приведенное к уровню моря атмосферное давление.
  • Po - Атмосферное давление - измеренное на уровне метеостанции атмосферное давление.
  • Tmin - Минимальная температура - минимум температуры воздуха на высоте 2 м над землей.
  • Tmax - Максимальная температура - максимум температуры воздуха на высоте 2 м над землей.
  • R - Количество осадков - Количество выпавших осадков за период времени, мм. При наведении курсора мыши на число - период времени, за который выпало указанное количество осадков.
  • R24 - Количество осадков - Количество выпавших осадков за 24 часа, мм.
  • S - Снежный покров - Высота снежного покрова, см. При наведении курсора мыши на число - состояние снежного покрова и степень покрытия местности в баллах.